EUTELSAT HOTBIRD 13E

Last updated on Tue Oct 08 2024 00:02:38 GMT+0000 (Coordinated Universal Time)

1 28946U 06007B 24281.18805667 .00000097 00000+0 00000+0 0 9994 2 28946 0.4889 97.6471 0004908 98.8443 260.3431 1.00271471 68120
UTC large
Height (km)
Speed (km/s)
/
Latitude / Longitude
Inclination (degrees)
Orbital Period (minutes)
Azimuth
Elevation
Range (km)
Doppler Factor

Next 0 passes for location: London (51.5072 / 0.1276)

Sorry there are no passes over London.